EN

Hourly Weather Namitete

Today, 29 November, Sunday

Time Temperature Precipitation Wind Pressure Humidity
00:00 +23°C° 0 mm 1 mps 664 mmHg 62%
01:00 +23°C° 0 mm 1 mps 664 mmHg 64%
02:00 +21°C° 0 mm 2 mps 663 mmHg 60%
03:00 +21°C° 0 mm 2 mps 663 mmHg 62%
04:00 +22°C° 0 mm 1 mps 663 mmHg 64%
05:00 +21°C° 0 mm 1 mps 663 mmHg 65%
06:00 +23°C° 0 mm 2 mps 665 mmHg 60%
07:00 +25°C° 0 mm 2 mps 666 mmHg 55%
08:00 +28°C° 0 mm 2 mps 667 mmHg 49%
09:00 +30°C° 0 mm 2 mps 667 mmHg 43%
10:00 +31°C° 0 mm 2 mps 667 mmHg 37%
11:00 +34°C° 0 mm 2 mps 666 mmHg 31%
12:00 +34°C° 0 mm 2 mps 666 mmHg 30%
13:00 +35°C° 0 mm 2 mps 665 mmHg 28%
14:00 +35°C° 0 mm 2 mps 665 mmHg 27%
15:00 +34°C° 0 mm 2 mps 664 mmHg 30%
16:00 +32°C° 0 mm 2 mps 663 mmHg 33%
17:00 +31°C° 0 mm 2 mps 663 mmHg 35%
18:00 +30°C° 0 mm 3 mps 663 mmHg 39%
19:00 +28°C° 0 mm 3 mps 663 mmHg 42%
20:00 +27°C° 0 mm 3 mps 663 mmHg 46%
21:00 +26°C° 0 mm 2 mps 663 mmHg 49%
22:00 +25°C° 0 mm 2 mps 663 mmHg 51%
23:00 +24°C° 0 mm 2 mps 663 mmHg 54%

Tomorrow, 30 November, Monday

Time Temperature Precipitation Wind Pressure Humidity
00:00 +24°C° 0 mm 2 mps 663 mmHg 56%
01:00 +23°C° 0 mm 2 mps 663 mmHg 59%
02:00 +23°C° 0 mm 1 mps 663 mmHg 61%
03:00 +23°C° 0 mm 1 mps 663 mmHg 63%
04:00 +21°C° 0 mm 2 mps 663 mmHg 65%
05:00 +21°C° 0 mm 2 mps 663 mmHg 67%
06:00 +24°C° 0 mm 2 mps 664 mmHg 60%
07:00 +27°C° 0 mm 2 mps 665 mmHg 53%
08:00 +29°C° 0 mm 2 mps 666 mmHg 46%
09:00 +31°C° 0 mm 2 mps 666 mmHg 41%
10:00 +34°C° 0 mm 2 mps 666 mmHg 35%
11:00 +35°C° 0 mm 2 mps 666 mmHg 30%
12:00 +35°C° 0 mm 2 mps 665 mmHg 31%
13:00 +34°C° 0 mm 3 mps 664 mmHg 32%
14:00 +34°C° 0 mm 3 mps 663 mmHg 33%
15:00 +33°C° 0 mm 3 mps 663 mmHg 34%
16:00 +33°C° 0 mm 3 mps 663 mmHg 36%
17:00 +31°C° 0 mm 3 mps 662 mmHg 37%
18:00 +30°C° 0 mm 3 mps 663 mmHg 42%
19:00 +28°C° 0 mm 2 mps 663 mmHg 47%
20:00 +27°C° 0 mm 2 mps 663 mmHg 53%
21:00 +26°C° 0 mm 2 mps 663 mmHg 54%
22:00 +26°C° 0 mm 2 mps 663 mmHg 55%
23:00 +26°C° 0 mm 1 mps 664 mmHg 56%

Day after tomorrow, 1 December, Tuesday

Time Temperature Precipitation Wind Pressure Humidity
00:00 +25°C° 0.1 mm 1 mps 663 mmHg 59%
01:00 +25°C° 0.1 mm 1 mps 663 mmHg 63%
02:00 +24°C° 0.1 mm 1 mps 663 mmHg 66%
03:00 +23°C° 0.2 mm 1 mps 663 mmHg 69%
04:00 +23°C° 0.2 mm 1 mps 663 mmHg 72%
05:00 +22°C° 0.2 mm 1 mps 663 mmHg 75%
06:00 +24°C° 0 mm 2 mps 663 mmHg 67%
07:00 +26°C° 0 mm 2 mps 664 mmHg 60%
08:00 +28°C° 0 mm 3 mps 665 mmHg 52%
09:00 +30°C° 0 mm 3 mps 665 mmHg 46%
10:00 +33°C° 0 mm 3 mps 665 mmHg 40%
11:00 +35°C° 0 mm 3 mps 665 mmHg 34%
12:00 +34°C° 0 mm 2 mps 664 mmHg 36%
13:00 +32°C° 0 mm 2 mps 663 mmHg 37%
14:00 +32°C° 0 mm 2 mps 662 mmHg 38%
15:00 +31°C° 0 mm 2 mps 662 mmHg 39%
16:00 +31°C° 0 mm 2 mps 661 mmHg 41%
17:00 +31°C° 0 mm 2 mps 661 mmHg 42%
18:00 +29°C° 0.1 mm 2 mps 662 mmHg 46%
19:00 +28°C° 0.1 mm 2 mps 662 mmHg 49%
20:00 +27°C° 0.1 mm 2 mps 662 mmHg 53%
21:00 +26°C° 0 mm 2 mps 662 mmHg 55%
22:00 +25°C° 0 mm 2 mps 662 mmHg 57%
23:00 +25°C° 0 mm 1 mps 662 mmHg 60%

2 December, Wednesday

Time Temperature Precipitation Wind Pressure Humidity
00:00 +24°C° 0 mm 1 mps 662 mmHg 62%
01:00 +24°C° 0 mm 2 mps 662 mmHg 64%
02:00 +24°C° 0 mm 2 mps 662 mmHg 65%
03:00 +23°C° 0 mm 2 mps 662 mmHg 67%
04:00 +23°C° 0 mm 2 mps 662 mmHg 69%
05:00 +23°C° 0 mm 2 mps 662 mmHg 71%
06:00 +25°C° 0 mm 2 mps 663 mmHg 64%
07:00 +27°C° 0 mm 3 mps 664 mmHg 57%
08:00 +29°C° 0 mm 3 mps 665 mmHg 50%
09:00 +30°C° 0 mm 3 mps 665 mmHg 44%
10:00 +33°C° 0 mm 3 mps 665 mmHg 39%
11:00 +35°C° 0 mm 3 mps 664 mmHg 33%
12:00 +35°C° 0 mm 3 mps 664 mmHg 34%
13:00 +34°C° 0 mm 3 mps 663 mmHg 35%
14:00 +34°C° 0 mm 4 mps 662 mmHg 36%
15:00 +33°C° 0.1 mm 3 mps 661 mmHg 39%
16:00 +31°C° 0.1 mm 2 mps 661 mmHg 41%
17:00 +30°C° 0.1 mm 2 mps 661 mmHg 44%
18:00 +29°C° 0.1 mm 1 mps 661 mmHg 48%
19:00 +28°C° 0.1 mm 1 mps 662 mmHg 53%
20:00 +26°C° 0.1 mm 1 mps 662 mmHg 57%
21:00 +26°C° 0 mm 1 mps 663 mmHg 60%
22:00 +25°C° 0 mm 1 mps 663 mmHg 64%
23:00 +24°C° 0 mm 2 mps 663 mmHg 67%

3 December, Thursday

Time Temperature Precipitation Wind Pressure Humidity
00:00 +24°C° 0.2 mm 2 mps 663 mmHg 72%
01:00 +23°C° 0.2 mm 2 mps 663 mmHg 76%
02:00 +22°C° 0.2 mm 1 mps 663 mmHg 80%
03:00 +22°C° 0.3 mm 1 mps 663 mmHg 82%
04:00 +22°C° 0.3 mm 1 mps 663 mmHg 84%
05:00 +22°C° 0.3 mm 1 mps 663 mmHg 86%
06:00 +23°C° 0 mm 2 mps 664 mmHg 77%
07:00 +25°C° 0 mm 3 mps 665 mmHg 68%
08:00 +27°C° 0 mm 4 mps 666 mmHg 59%
09:00 +29°C° 0.4 mm 4 mps 666 mmHg 53%
10:00 +30°C° 0.4 mm 4 mps 666 mmHg 47%
11:00 +33°C° 0.4 mm 3 mps 666 mmHg 42%
12:00 +33°C° 0 mm 3 mps 665 mmHg 39%
13:00 +33°C° 0 mm 3 mps 664 mmHg 37%
14:00 +33°C° 0 mm 3 mps 664 mmHg 35%
15:00 +33°C° 0 mm 4 mps 663 mmHg 36%
16:00 +33°C° 0 mm 4 mps 663 mmHg 37%
17:00 +32°C° 0 mm 4 mps 663 mmHg 38%
18:00 +29°C° 0 mm 3 mps 663 mmHg 45%
19:00 +27°C° 0 mm 3 mps 664 mmHg 51%
20:00 +26°C° 0 mm 2 mps 664 mmHg 58%
21:00 +25°C° 0.1 mm 2 mps 664 mmHg 61%
22:00 +24°C° 0.1 mm 2 mps 664 mmHg 64%
23:00 +24°C° 0.1 mm 2 mps 664 mmHg 67%

4 December, Friday

Time Temperature Precipitation Wind Pressure Humidity
00:00 +23°C° 0.4 mm 2 mps 664 mmHg 71%
01:00 +23°C° 0.4 mm 2 mps 663 mmHg 76%
02:00 +21°C° 0.4 mm 2 mps 663 mmHg 80%
03:00 +21°C° 0 mm 2 mps 663 mmHg 78%
04:00 +21°C° 0 mm 2 mps 664 mmHg 77%
05:00 +23°C° 0 mm 2 mps 664 mmHg 75%
06:00 +24°C° 0 mm 3 mps 665 mmHg 69%
07:00 +26°C° 0 mm 3 mps 666 mmHg 63%
08:00 +27°C° 0 mm 4 mps 666 mmHg 57%
09:00 +29°C° 0.1 mm 4 mps 666 mmHg 51%
10:00 +32°C° 0.1 mm 4 mps 666 mmHg 44%
11:00 +34°C° 0.1 mm 4 mps 666 mmHg 38%
12:00 +33°C° 0 mm 4 mps 666 mmHg 39%
13:00 +33°C° 0 mm 3 mps 665 mmHg 39%
14:00 +31°C° 0 mm 3 mps 664 mmHg 39%
15:00 +31°C° 0 mm 3 mps 664 mmHg 41%
16:00 +30°C° 0 mm 3 mps 664 mmHg 42%
17:00 +29°C° 0 mm 3 mps 663 mmHg 43%
18:00 +28°C° 0 mm 2 mps 664 mmHg 49%
19:00 +26°C° 0 mm 2 mps 664 mmHg 54%
20:00 +25°C° 0 mm 1 mps 664 mmHg 60%
21:00 +25°C° 0.1 mm 1 mps 664 mmHg 63%
22:00 +24°C° 0.1 mm 1 mps 665 mmHg 65%
23:00 +24°C° 0.1 mm 1 mps 665 mmHg 68%
Show more

We Need Your Consent

Meteoprog and our Service Providers may store and access personal data such as cookies, device identifiers or other similar technologies on your device and process such data to personalise content and ads, as well as provide social media features and to analyse the traffic.

  • Store and/or access information on your device

    Cookies, device identifiers or other information can be stored or accessed on your device for the purposes indicated above.

  • Personalised ads and content, ad and content measurement, audience insights, and products development

    Ads and content can be personalised based on a profile. More data can be added to better personalise ads and content. Ad and content performance can be measured. Insights about the audience who saw the ads and content can be derived. Such data can be used to develop or improve user’s experience, systems and software.

By clicking ‘I Agree’ you will allow the use of indicated cookies, device identifiers, web beacons or other similar technologies. Your settings can be changed in the browser on your device.

For certain purposes, legitimate interests may be relied on, rather than consent. You can read more about this in our Privacy and Cookie Policy.